Regional Weather Roundup
Issued by NWS Upton, NY

Current Version | Previous Version | Graphics & Text | Print | Product List | Glossary Off
Versions: 1 2 3 4 5 6 7 8 9 10 11 12 13 14 15 16 17 18 19 20 21 22 23 24 25 26 27 28 29 30 31 32 33 34 35 36 37 38 39 40 41 42 43 44 45 46 47 48 49 50

093
ASUS41 KOKX 160008
RWROKX

REGIONAL WEATHER ROUNDUP
NATIONAL WEATHER SERVICE NEW YORK NY
700 PM EST FRI DEC 15 2017

NOTE: "FAIR" INDICATES FEW OR NO CLOUDS BELOW 12,000 FEET WITH NO
SIGNIFICANT WEATHER AND/OR OBSTRUCTIONS TO VISIBILITY.

NYZ071-072-176-178-NJZ106-104-160100-
NEW YORK CITY METRO AREA

CITY           SKY/WX    TMP DP  RH WIND       PRES   REMARKS
Central Park   LGT SNOW  24  21  88 NW3       29.93S FOG
Bronx Bot Gard   N/A     25  23  93 W5        29.93F WCI  19
Bronx Lehman C   N/A     25  23  93 W2          N/A
LaGuardia APRT LGT SNOW  26  22  84 VRB5      29.91F FOG     WCI  20
Queens College   N/A     27  25  93 W3          N/A
Kennedy INTL   LGT SNOW  25  23  92 W8        29.93F FOG     WCI  16
Breezy Point     N/A    N/A N/A N/A NW6         N/A
Brooklyn Coll    N/A     27  25  93 W5          N/A  WCI  21
Staten Island    N/A     25  23  93 W2          N/A
Newark/Liberty LGT SNOW  24  20  84 W6        29.93S WCI  17
Teterboro      LGT SNOW  24  20  84 W3        29.92F FOG
$$

NYZ177-179-078>081-160100-
LONG ISLAND NEW YORK

CITY           SKY/WX    TMP DP  RH WIND       PRES   REMARKS
Jones Beach      N/A    N/A N/A N/A NW8         N/A
Wantagh          N/A     27  25  93 W5          N/A  WCI  21
Matinecock PT    N/A    N/A N/A N/A W12         N/A
Farmingdale    LGT SNOW  25  23  92 NW5       29.90F FOG     WCI  19
MacArthur/ISP  LGT SNOW  27  25  92 W5        29.89F VSB 3/4 WCI  22
Shirley        LGT SNOW  27  26  96 NW6       29.90F FOG     WCI  20
Mt Sinai Harb    N/A    N/A N/A N/A SW1         N/A
Westhampton    LGT SNOW  26  23  88 NW3       29.90F FOG
East Hampton   LGT SNOW  28  27  95 N3        29.88F
Southold         N/A     28  27  93 SW1         N/A
Montauk          N/A     32  30  92 CALM      29.89F
$$

NYZ052-065-067-160100-
HUDSON VALLEY

CITY           SKY/WX    TMP DP  RH WIND       PRES   REMARKS
White Plains   LGT SNOW  22  19  89 W5        29.87F FOG     WCI  16
Larchmont Harb   N/A    N/A N/A N/A W8          N/A
Croton On Huds   N/A    N/A N/A N/A S2          N/A
Somers           N/A     21  19  93 SW1         N/A
Brewster         N/A     21  19  93 CALM        N/A
Newburgh       NOT AVBL
Montgomery     LGT SNOW  21  18  88 CALM      29.87F FOG
Otisville        N/A     19  18  93 SW2         N/A
Warwick          N/A     21  19  93 W1          N/A
Suffern          N/A     21  19  93 SW1         N/A
Poughkeepsie   LGT SNOW  22  18  85 CALM      29.89F FOG
Albany         CLOUDY    21  10  62 S7        29.85F WCI  12
$$

NJZ001-105-106-008-010-013-015-019>022-104-160100-
NEW JERSEY

CITY           SKY/WX    TMP DP  RH WIND       PRES   REMARKS
Newark/Liberty LGT SNOW  24  20  84 W6        29.93S WCI  17
Teterboro      LGT SNOW  24  20  84 W3        29.92F FOG
Caldwell       LGT SNOW  22  21  96 CALM      29.92F FOG
Somerville     LGT SNOW  22  21  96 CALM      29.91F FOG
Linden         LGT SNOW  23  20  87 CALM      29.93S
Perth Amboy      N/A    N/A N/A N/A W5          N/A
Sussex         LGT SNOW  21  18  88 CALM      29.88S FOG
Andover        NOT AVBL
Trenton        CLOUDY    23  20  88 CALM      29.91F
Millville      MIX PCPN  25  24  96 N3        29.93S
Atlantic City  LGT SNOW  25  24  96 NW5       29.93R VSB 1   WCI  19
Wrightstown    FLURRIES  23  21  93 NW3       29.89F
Toms River     LGT SNOW  23  21  92 CALM      29.92F FOG
Belmar         FLURRIES  22  20  92 NW7       29.92F WCI  13
$$

PAZ047>061-062-071-160100-
EASTERN PENNSYLVANIA

CITY           SKY/WX    TMP DP  RH WIND       PRES   REMARKS
Philadelphia   CLOUDY    25  22  88 N5        29.94S WCI  19
Allentown      CLOUDY    22  18  85 NW3       29.91S
Scranton       CLOUDY    21  18  88 SW5       29.85R WCI  15
$$

CTZ002-004>006-009-010-012-RIZ004-006-007-MAZ004-011-015-160100-
SOUTHERN NEW ENGLAND
 IN CT

CITY           SKY/WX    TMP DP  RH WIND       PRES   REMARKS
Bradley INTL   LGT SNOW  21  18  88 S6        29.90S FOG     WCI  13
Hartford       LGT SNOW  23  19  85 S3        29.91S
Danbury        LGT SNOW  22  19  89 W3        29.89F FOG
Wtrbury/Oxford LGT SNOW  22  19  89 CALM      29.86F FOG
Norwalk Harbor   N/A    N/A N/A N/A NW9         N/A
Bridgeport     LGT SNOW  26  22  84 W8        29.90F FOG     WCI  18
Meriden        LGT SNOW  22  19  89 CALM      29.91S FOG
New Haven      LGT SNOW  25  22  88 N5        29.90F FOG     WCI  19
Chester        LGT SNOW  23  21  93 CALM      29.87F
Groton         LGT SNOW  24  20  84 N6        29.89F FOG     WCI  17
Wilimantic     LGT SNOW  23  15  71 SW3       29.90R

 IN RI

CITY           SKY/WX    TMP DP  RH WIND       PRES   REMARKS
Providence     LGT SNOW  25  18  74 CALM      29.90F
Block Island   LGT SNOW  30  28  92 N7        29.88F FOG     WCI  23
Westerly       LGT SNOW  24  22  91 N6        29.90F FOG     WCI  17
 IN MA

CITY           SKY/WX    TMP DP  RH WIND       PRES   REMARKS
Boston         CLOUDY    26  12  55 S6        29.89R WCI  19
Worcester      CLOUDY    20  10  65 S6        29.82R WCI  12
Westfield      LGT SNOW  21  15  78 S8        29.88R WCI  11
Provincetown   CLOUDY    27  19  72 CALM      29.89
Nantucket      LGT SNOW  30  30 100 NE5       29.87F FOG     WCI  25
$$

ANZ330-335-338-340-345-350-353-355-160100-
COASTAL MARINE OBSERVATIONS


STATION/POSITION TIME  SKY/WX   TEMP    WIND        PRES    VSBY  WAVE
                                AIR SEA DIR/SP/G                  HT/PER
                 (UTC)          (F)     (DEG/KT/KT) (MB)    (MI)  (FT/S)
NY HARB ENTRANCE 2250            28 50  290/ 12/ 14 1012.9          1/10
20 S FIRE ISLAND 2350            31 51  310/ 10/ 14 1012.4          2/ 8
GREAT SOUTH BAY  NOT AVBL
HUDSON CANYON    2350            37 56  360/ 16/ 17 1010.2          2/ 8
KINGS POINT      2324            25 42  340/  4/  5 1014.1
EXECUTION ROCKS  2330            26     280/  8/ 10   N/A
WESTERN LI SOUND NOT AVBL
CENTRAL LI SOUND 2315            27      30/  6/  8   N/A           1
ROBBINS REEF     2324            23     280/  8/  9 1014.0
$$


>>>>>>>>>>>>>>>>>>>>>>>>>>>> KEY <<<<<<<<<<<<<<<<<<<<<<<<<<<
>                                                          <
>     SKY/WX - Sky Condition/Present Weather               <
>     TMP    - Temperature in Fahrenheit                   <
>     DP     - Dew Point in Fahrenheit                     <
>     RH     - Relative Humidity in Percent                <
>     WIND   - Direction (from) and Speed in MPH           <
>     PRES   - Mean Sea Level Pressure (inches of Hg)      <
>     WCI    - Wind Chill Index                            <
>     VSB    - VISIBILITY IN MILES                         <
>     HX     - HEAT INDEX                                  <
>     TC     - TEMPERATURE IN CELSIUS                      <
>     VRB    - VARIABLE WIND DIRECTION                     <
>                                                          <
>>>>>>>>>>>>>>>>>>>>>>>>>>>> KEY <<<<<<<<<<<<<<<<<<<<<<<<<<<




USA.gov is the U.S. government's official web portal to all federal, state and local government web resources and services.